Flight Track Log - Related Links

Times and Time Zones

All times are in EDT time to prevent confusion due to time zone crossing. See the ERR781 flight status page for this flight to view local times or setup timezone preferences in your user account.

Time Position Orientation Groundspeed Altitude Reporting Facility
EDT Latitude Longitude Course Direction KTS MPH feet Rate Location/Type
Fri 08:57:03 PM 64.7667 -147.9500 218° Southwest 130 150 3,700  Level Anchorage Center
Fri 08:58:03 PM 64.7500 -148.0500 249° West 160 184 5,100 1,500 Climbing Anchorage Center
Fri 08:59:03 PM 64.7333 -148.1333 245° Southwest 160 184 6,700 1,550 Climbing Anchorage Center
Fri 09:00:03 PM 64.6833 -148.2000 210° Southwest 160 184 8,200 1,650 Climbing Anchorage Center
Fri 09:01:00 PM 64.4633 -148.0890 216° Southwest  Level Estimated
Fri 09:01:03 PM 64.6500 -148.2500 213° Southwest 160 184 10,000  Level Anchorage Center
Fri 09:02:00 PM 64.4046 -148.1272 218° Southwest  Level Estimated
Fri 09:02:03 PM 64.6167 -148.3167 221° Southwest 160 184 11,400  Level Anchorage Center
Fri 09:03:04 PM 64.5833 -148.3500 203° Southwest 180 207 12,800 1,450 Climbing Anchorage Center
Fri 09:04:03 PM 64.5333 -148.3833 196° South 180 207 14,300 1,500 Climbing Anchorage Center
Fri 09:05:04 PM 64.4833 -148.4167 196° South 180 207 15,800 1,339 Climbing Anchorage Center
Fri 09:06:04 PM 64.4333 -148.4500 196° South 180 207 17,000 1,150 Climbing Anchorage Center
Fri 09:07:04 PM 64.3833 -148.5000 203° Southwest 190 219 18,100 1,150 Climbing Anchorage Center
Fri 09:08:04 PM 64.3333 -148.5333 196° South 190 219 19,300 1,150 Climbing Anchorage Center
Fri 09:09:04 PM 64.2833 -148.5833 203° Southwest 190 219 20,400 850 Climbing Anchorage Center
Fri 09:10:04 PM 64.2333 -148.6167 196° South 190 219 21,000 300 Climbing Anchorage Center
Fri 09:11:04 PM 64.1667 -148.6667 198° South 230 265 21,000  Level Anchorage Center
Fri 09:12:05 PM 64.1000 -148.7167 198° South 240 276 21,000  Level Anchorage Center
Fri 09:13:04 PM 64.0500 -148.7667 204° Southwest 250 288 21,000  Level Anchorage Center
Fri 09:14:05 PM 63.9833 -148.8167 198° South 250 288 21,000  Level Anchorage Center
Fri 09:15:05 PM 63.9167 -148.8667 198° South 250 288 21,000  Level Anchorage Center
Fri 09:16:05 PM 63.8500 -148.9167 198° South 250 288 21,000  Level Anchorage Center
Fri 09:17:05 PM 63.7833 -148.9833 204° Southwest 260 299 21,000  Level Anchorage Center
Fri 09:18:05 PM 63.7167 -149.0167 192° South 250 288 21,000  Level Anchorage Center
Fri 09:19:05 PM 63.6333 -149.0667 195° South 260 299 21,000  Level Anchorage Center
Fri 09:20:05 PM 63.5667 -149.1167 198° South 250 288 21,000  Level Anchorage Center
Fri 09:21:05 PM 63.5000 -149.1667 199° South 260 299 21,000  Level Anchorage Center
Fri 09:22:05 PM 63.4333 -149.2333 204° Southwest 260 299 21,000  Level Anchorage Center
Fri 09:23:05 PM 63.3667 -149.2833 199° South 240 276 21,000  Level Anchorage Center
Fri 09:24:06 PM 63.3000 -149.3333 199° South 260 299 21,000  Level Anchorage Center
Fri 09:25:05 PM 63.2333 -149.3667 193° South 260 299 21,000  Level Anchorage Center
Fri 09:26:06 PM 63.1667 -149.4167 199° South 250 288 21,000  Level Anchorage Center
Fri 09:27:06 PM 63.1000 -149.4833 204° Southwest 250 288 21,000  Level Anchorage Center
Fri 09:28:06 PM 63.0333 -149.5167 193° South 250 288 21,000  Level Anchorage Center
Fri 09:29:06 PM 62.9667 -149.5667 199° South 250 288 21,000  Level Anchorage Center
Fri 09:30:06 PM 62.9000 -149.6167 199° South 250 288 21,000  Level Anchorage Center
Fri 09:31:06 PM 62.8333 -149.6500 193° South 240 276 21,000  Level Anchorage Center
Fri 09:32:06 PM 62.7667 -149.7167 205° Southwest 260 299 21,000  Level Anchorage Center
Fri 09:33:06 PM 62.7000 -149.7667 199° South 240 276 21,000  Level Anchorage Center
Fri 09:34:07 PM 62.6333 -149.8167 199° South 260 299 21,000  Level Anchorage Center
Fri 09:35:07 PM 62.5500 -149.8500 190° South 260 299 21,000  Level Anchorage Center
Fri 09:36:07 PM 62.4833 -149.9000 199° South 260 299 21,000  Level Anchorage Center
Fri 09:37:07 PM 62.4167 -149.9500 199° South 250 288 21,000  Level Anchorage Center
Fri 09:38:07 PM 62.3500 -150.0000 199° South 250 288 21,000  Level Anchorage Center
Fri 09:39:07 PM 62.2833 -150.0333 193° South 250 288 21,000 -550 Level Anchorage Center
Fri 09:40:07 PM 62.2000 -150.0833 196° South 260 299 19,900 -1,150 Descending Anchorage Center
Fri 09:41:07 PM 62.1500 -150.1333 205° Southwest 260 299 18,700 -1,190 Descending Anchorage Center
Fri 09:42:08 PM 62.0833 -150.1833 199° South 260 299 17,500 -1,289 Descending Anchorage Center
Fri 09:43:08 PM 62.0000 -150.2333 196° South 260 299 16,100 -1,350 Descending Anchorage Center
Fri 09:44:08 PM 61.9333 -150.2667 193° South 260 299 14,800 -1,300 Descending Anchorage Center
Fri 09:46:00 PM 61.8247 -150.3504 198° South  Level FlightAware Approximate
Fri 09:53:00 PM 61.4196 -150.2321 157° South  Level FlightAware Approximate
Fri 09:54:00 PM 61.3631 -150.1797 154° Southeast  Level FlightAware Approximate
Fri 09:55:00 PM 61.3113 -150.1124 159° South  Level FlightAware Approximate
Fri 09:56:00 PM 61.2536 -150.0662 159° South  Level FlightAware Approximate
Fri 09:57:00 PM 61.1972 -150.0138 154° Southeast  Level FlightAware Approximate
Fri 09:58:00 PM 61.1741 -149.9982 154° Southeast  Level Estimated
Fri 09:59:00 PM 61.1741 -149.9982 154° Southeast  Level Estimated
Fri 10:00:00 PM 61.1741 -149.9982 154° Southeast  Level Estimated
Fri 10:01:00 PM 61.1741 -149.9982 154° Southeast  Level Estimated
Fri 10:02:00 PM 61.1741 -149.9982 154° Southeast  Level Estimated
Fri 10:03:00 PM 61.1741 -149.9982 154° Southeast  Level Estimated
Fri 10:04:00 PM 61.1741 -149.9982 154° Southeast  Level Estimated
Fri 10:05:00 PM 61.1741 -149.9982 154° Southeast  Level Estimated
Fri 10:06:00 PM 61.1741 -149.9982 154° Southeast  Level Estimated
Fri 10:07:00 PM 61.1741 -149.9982 154° Southeast  Level Estimated
Fri 10:08:00 PM 61.1741 -149.9982 154° Southeast  Level Estimated
Fri 10:09:00 PM 61.1741 -149.9982 154° Southeast  Level Estimated
Fri 10:10:00 PM 61.1741 -149.9982 154° Southeast  Level Estimated
Fri 10:11:00 PM 61.1741 -149.9982 154° Southeast  Level Estimated
Fri 10:12:00 PM 61.1741 -149.9982 154° Southeast  Level Estimated
Fri 10:13:00 PM 61.1741 -149.9982 154° Southeast  Level Estimated
Fri 10:14:00 PM 61.1741 -149.9982 154° Southeast  Level Estimated

Login

Don't have an account? Register now (free) for customized features, flight alerts, and more!